When you browse on this site, cookies collect data to enhance your experience and personalize the content and advertising you see.
Visit our Privacy Policy to learn more. By continuing to use the site, you agree to this use of cookies and data.
  • En España
  • Lista de países
  • Para 7 días
  • Temperatura del agua
  • Mapa Satelital
  • El tiempo en el mapa
  • Informadores
  • user-avatar
    Iniciar sesión

    Tiempo cada hora Gor-Apole

    Hoy, 19 Julio, Viernes

    Tiempo Temperatura Precipitaciones Viento Presión Humedad
    00:00 +13°C° 0.7 mm 3 mps 736 mmHg 98%
    01:00 +13°C° 0.7 mm 3 mps 736 mmHg 98%
    02:00 +13°C° 0.7 mm 4 mps 736 mmHg 98%
    03:00 +13°C° 0.6 mm 3 mps 736 mmHg 98%
    04:00 +14°C° 0.6 mm 3 mps 737 mmHg 98%
    05:00 +14°C° 0.6 mm 3 mps 737 mmHg 98%
    06:00 +14°C° 0.2 mm 3 mps 737 mmHg 97%
    07:00 +14°C° 0.2 mm 3 mps 738 mmHg 97%
    08:00 +14°C° 0.2 mm 4 mps 738 mmHg 96%
    09:00 +15°C° 0.5 mm 4 mps 739 mmHg 95%
    10:00 +15°C° 0.5 mm 5 mps 739 mmHg 93%
    11:00 +16°C° 0.5 mm 5 mps 739 mmHg 92%
    12:00 +16°C° 0.2 mm 5 mps 740 mmHg 89%
    13:00 +16°C° 0.2 mm 5 mps 740 mmHg 87%
    14:00 +16°C° 0.2 mm 5 mps 740 mmHg 85%
    15:00 +16°C° 0 mm 5 mps 740 mmHg 82%
    16:00 +16°C° 0 mm 5 mps 741 mmHg 80%
    17:00 +16°C° 0 mm 5 mps 741 mmHg 77%
    18:00 +17°C° 0 mm 4 mps 741 mmHg 78%
    19:00 +17°C° 0 mm 4 mps 741 mmHg 80%
    20:00 +16°C° 0 mm 3 mps 742 mmHg 81%
    21:00 +14°C° 0 mm 3 mps 742 mmHg 84%
    22:00 +14°C° 0 mm 3 mps 742 mmHg 86%
    23:00 +13°C° 0 mm 3 mps 742 mmHg 89%

    Mañana, 20 Julio, Sábado

    Tiempo Temperatura Precipitaciones Viento Presión Humedad
    00:00 +13°C° 0 mm 3 mps 743 mmHg 91%
    01:00 +12°C° 0 mm 3 mps 743 mmHg 93%
    02:00 +12°C° 0 mm 3 mps 743 mmHg 95%
    03:00 +12°C° 0 mm 3 mps 743 mmHg 95%
    04:00 +12°C° 0 mm 3 mps 743 mmHg 95%
    05:00 +12°C° 0 mm 3 mps 744 mmHg 94%
    06:00 +13°C° 0 mm 3 mps 744 mmHg 88%
    07:00 +16°C° 0 mm 3 mps 744 mmHg 82%
    08:00 +18°C° 0 mm 3 mps 745 mmHg 76%
    09:00 +19°C° 0 mm 3 mps 745 mmHg 70%
    10:00 +21°C° 0 mm 4 mps 745 mmHg 64%
    11:00 +22°C° 0 mm 4 mps 746 mmHg 58%
    12:00 +22°C° 0 mm 5 mps 746 mmHg 57%
    13:00 +23°C° 0 mm 5 mps 746 mmHg 55%
    14:00 +23°C° 0 mm 5 mps 746 mmHg 54%
    15:00 +23°C° 0 mm 4 mps 746 mmHg 57%
    16:00 +22°C° 0 mm 4 mps 746 mmHg 59%
    17:00 +22°C° 0 mm 4 mps 746 mmHg 61%
    18:00 +20°C° 0 mm 3 mps 746 mmHg 69%
    19:00 +19°C° 0 mm 3 mps 746 mmHg 77%
    20:00 +17°C° 0 mm 2 mps 747 mmHg 84%
    21:00 +16°C° 0 mm 2 mps 747 mmHg 87%
    22:00 +15°C° 0 mm 2 mps 747 mmHg 91%
    23:00 +15°C° 0 mm 2 mps 747 mmHg 94%

    Pasado mañana, 21 Julio, Domingo

    Tiempo Temperatura Precipitaciones Viento Presión Humedad
    00:00 +14°C° 0 mm 2 mps 747 mmHg 95%
    01:00 +14°C° 0 mm 2 mps 747 mmHg 95%
    02:00 +13°C° 0 mm 1 mps 748 mmHg 95%
    03:00 +13°C° 0 mm 1 mps 748 mmHg 95%
    04:00 +13°C° 0 mm 1 mps 748 mmHg 95%
    05:00 +14°C° 0 mm 1 mps 748 mmHg 95%
    06:00 +16°C° 0 mm 1 mps 748 mmHg 88%
    07:00 +19°C° 0 mm 1 mps 748 mmHg 80%
    08:00 +21°C° 0 mm 1 mps 748 mmHg 73%
    09:00 +22°C° 0 mm 1 mps 748 mmHg 67%
    10:00 +23°C° 0 mm 1 mps 748 mmHg 61%
    11:00 +24°C° 0 mm 2 mps 748 mmHg 55%
    12:00 +25°C° 0 mm 2 mps 748 mmHg 54%
    13:00 +25°C° 0 mm 2 mps 748 mmHg 53%
    14:00 +25°C° 0 mm 2 mps 748 mmHg 52%
    15:00 +25°C° 0 mm 2 mps 748 mmHg 55%
    16:00 +25°C° 0 mm 2 mps 748 mmHg 57%
    17:00 +25°C° 0 mm 2 mps 748 mmHg 60%
    18:00 +23°C° 0 mm 1 mps 748 mmHg 67%
    19:00 +21°C° 0 mm 1 mps 747 mmHg 74%
    20:00 +17°C° 0 mm 0 mps 747 mmHg 81%
    21:00 +16°C° 0 mm 0 mps 747 mmHg 83%
    22:00 +15°C° 0 mm 0 mps 747 mmHg 85%
    23:00 +15°C° 0 mm 0 mps 747 mmHg 87%

    22 Julio, Lunes

    Tiempo Temperatura Precipitaciones Viento Presión Humedad
    00:00 +15°C° 0 mm 1 mps 747 mmHg 88%
    01:00 +15°C° 0 mm 1 mps 747 mmHg 89%
    02:00 +15°C° 0 mm 1 mps 747 mmHg 89%
    03:00 +15°C° 0 mm 1 mps 746 mmHg 90%
    04:00 +15°C° 0 mm 1 mps 746 mmHg 90%
    05:00 +16°C° 0 mm 1 mps 746 mmHg 90%
    06:00 +17°C° 0 mm 2 mps 746 mmHg 86%
    07:00 +19°C° 0 mm 2 mps 746 mmHg 82%
    08:00 +20°C° 0 mm 2 mps 746 mmHg 77%
    09:00 +20°C° 0.7 mm 2 mps 745 mmHg 80%
    10:00 +21°C° 0.7 mm 3 mps 745 mmHg 83%
    11:00 +21°C° 0.7 mm 3 mps 745 mmHg 86%
    12:00 +20°C° 0.3 mm 2 mps 745 mmHg 88%
    13:00 +20°C° 0.3 mm 1 mps 745 mmHg 91%
    14:00 +20°C° 0.3 mm 1 mps 745 mmHg 93%
    15:00 +19°C° 0.7 mm 1 mps 744 mmHg 94%
    16:00 +19°C° 0.7 mm 1 mps 744 mmHg 95%
    17:00 +19°C° 0.7 mm 1 mps 744 mmHg 97%
    18:00 +17°C° 0 mm 2 mps 744 mmHg 97%
    19:00 +17°C° 0 mm 2 mps 744 mmHg 97%
    20:00 +17°C° 0 mm 2 mps 744 mmHg 97%
    21:00 +17°C° 0 mm 2 mps 743 mmHg 97%
    22:00 +16°C° 0 mm 2 mps 743 mmHg 97%
    23:00 +16°C° 0 mm 2 mps 743 mmHg 98%

    23 Julio, Martes

    Tiempo Temperatura Precipitaciones Viento Presión Humedad
    00:00 +16°C° 0.3 mm 2 mps 743 mmHg 98%
    01:00 +16°C° 0.3 mm 2 mps 743 mmHg 98%
    02:00 +16°C° 0.3 mm 2 mps 743 mmHg 99%
    03:00 +16°C° 0.3 mm 2 mps 743 mmHg 98%
    04:00 +16°C° 0.3 mm 2 mps 743 mmHg 98%
    05:00 +16°C° 0.3 mm 3 mps 743 mmHg 98%
    06:00 +16°C° 0.1 mm 3 mps 743 mmHg 97%
    07:00 +16°C° 0.1 mm 3 mps 743 mmHg 97%
    08:00 +16°C° 0.1 mm 3 mps 743 mmHg 96%
    09:00 +17°C° 0.1 mm 2 mps 743 mmHg 94%
    10:00 +17°C° 0.1 mm 2 mps 744 mmHg 91%
    11:00 +18°C° 0.1 mm 2 mps 744 mmHg 88%
    12:00 +19°C° 0.1 mm 2 mps 744 mmHg 82%
    13:00 +20°C° 0.1 mm 2 mps 744 mmHg 76%
    14:00 +21°C° 0.1 mm 2 mps 744 mmHg 69%
    15:00 +23°C° 0.1 mm 2 mps 744 mmHg 69%
    16:00 +23°C° 0.1 mm 1 mps 744 mmHg 69%
    17:00 +23°C° 0.1 mm 1 mps 744 mmHg 68%
    18:00 +22°C° 0.1 mm 1 mps 744 mmHg 74%
    19:00 +20°C° 0.1 mm 1 mps 744 mmHg 79%
    20:00 +18°C° 0.1 mm 1 mps 744 mmHg 84%
    21:00 +16°C° 0 mm 2 mps 744 mmHg 86%
    22:00 +16°C° 0 mm 2 mps 744 mmHg 88%
    23:00 +15°C° 0 mm 2 mps 744 mmHg 90%

    24 Julio, Miércoles

    Tiempo Temperatura Precipitaciones Viento Presión Humedad
    00:00 +14°C° 0 mm 2 mps 744 mmHg 90%
    01:00 +14°C° 0 mm 2 mps 744 mmHg 90%
    02:00 +13°C° 0 mm 2 mps 744 mmHg 91%
    03:00 +13°C° 0 mm 2 mps 744 mmHg 90%
    04:00 +12°C° 0 mm 3 mps 744 mmHg 90%
    05:00 +11°C° 0 mm 3 mps 744 mmHg 90%
    06:00 +13°C° 0 mm 3 mps 744 mmHg 84%
    07:00 +14°C° 0 mm 3 mps 744 mmHg 78%
    08:00 +17°C° 0 mm 3 mps 744 mmHg 72%
    09:00 +18°C° 0 mm 3 mps 744 mmHg 69%
    10:00 +19°C° 0 mm 3 mps 744 mmHg 66%
    11:00 +20°C° 0 mm 3 mps 744 mmHg 62%
    12:00 +20°C° 0.1 mm 3 mps 744 mmHg 63%
    13:00 +21°C° 0.1 mm 3 mps 744 mmHg 64%
    14:00 +21°C° 0.1 mm 3 mps 744 mmHg 64%
    15:00 +20°C° 0.4 mm 3 mps 744 mmHg 70%
    16:00 +20°C° 0.4 mm 3 mps 744 mmHg 75%
    17:00 +20°C° 0.4 mm 3 mps 744 mmHg 80%
    18:00 +19°C° 0.1 mm 3 mps 744 mmHg 84%
    19:00 +18°C° 0.1 mm 2 mps 744 mmHg 87%
    20:00 +17°C° 0.1 mm 2 mps 744 mmHg 91%
    21:00 +16°C° 0 mm 3 mps 744 mmHg 92%
    22:00 +16°C° 0 mm 3 mps 743 mmHg 93%
    23:00 +16°C° 0 mm 3 mps 743 mmHg 94%
    Mostrar más